Wind_Speed
11 4 4 6 5 8 9 10 11 10 10 11 10 7 7 7 7 8 11 12 10 13 11 13 12 13 15 13 14 20 24 19 15 17 20 24 24 24 27 27 28 31 32 30 31 32 31 33 34 33 33 34 33 33 32 34 34 31 30 28 29 33 31 29 29 28 27 26 23 22 23 23 22 21 17 12 10 10 8 8 9 10 9 9 10 9
10 5 5 8 9 9 9 10 12 12 12 12 9 8 8 7 8 9 12 11 9 12 10 13 12 12 15 15 16 20 17 14 18 20 20 24 23 23 26 26 26 30 32 31 31 33 32 32 33 33 34 34 34 34 33 35 36 32 31 30 30 33 33 30 31 30 29 28 26 24 24 24 24 23 18 13 12 10 8 8 8 9 9 9 10 9
6 5 7 9 9 10 10 10 11 12 12 10 7 6 7 6 8 10 11 9 8 9 10 15 13 10 13 16 18 19 16 16 23 24 22 25 24 24 27 27 27 29 31 32 32 34 34 33 33 34 36 35 35 35 34 36 37 34 32 32 30 32 34 32 31 31 29 28 26 23 24 26 26 24 20 17 15 11 8 8 6 7 9 9 10 10
4 5 10 11 10 10 11 11 11 10 8 7 6 5 6 7 8 7 7 6 4 6 13 15 10 8 10 13 13 17 22 22 25 26 26 28 28 28 30 29 29 30 32 32 33 35 35 35 34 35 38 37 36 37 36 37 38 36 34 34 33 32 33 33 31 30 29 27 25 22 24 25 25 25 23 20 18 14 10 9 7 6 8 9 10 10
6 8 13 14 12 11 11 10 10 8 5 6 7 7 6 9 11 8 7 7 5 4 16 15 7 4 8 12 11 14 20 19 23 27 26 30 31 31 31 30 30 32 34 33 32 35 36 37 36 36 38 38 38 39 39 39 39 38 36 36 35 32 32 34 32 30 29 28 26 23 22 22 21 23 25 23 19 16 14 12 9 7 8 9 10 9
8 12 14 11 11 12 11 9 8 7 5 5 8 9 9 11 14 13 11 9 6 2 12 15 6 3 8 14 13 12 14 14 18 21 23 29 31 31 32 31 31 32 34 34 32 35 37 38 38 37 38 39 39 41 41 40 39 39 38 37 36 34 33 34 34 32 30 30 29 26 25 23 21 22 24 23 20 19 17 14 12 8 8 9 9 9
6 10 12 10 10 12 11 9 9 7 5 4 6 8 11 12 14 14 12 7 4 4 6 11 7 4 6 11 14 15 16 15 15 14 19 28 30 31 34 34 35 34 34 35 33 35 38 39 40 39 39 40 40 41 41 40 40 40 40 38 38 37 34 34 35 35 32 31 31 29 29 27 25 23 22 20 20 20 18 16 13 9 8 8 9 10
5 8 10 10 10 8 8 7 7 9 6 3 6 9 10 11 13 14 10 6 4 5 5 5 3 4 5 10 14 17 17 15 14 13 16 25 31 34 35 36 38 36 36 36 33 36 39 38 41 42 41 41 40 40 41 41 41 41 41 40 39 38 36 35 35 37 36 33 32 31 30 29 27 24 22 20 20 20 18 17 14 10 8 7 8 9
7 6 6 8 9 6 5 6 8 10 8 5 7 11 9 8 11 12 8 5 4 5 6 7 4 1 5 9 11 15 16 14 15 16 15 22 31 35 36 37 38 36 36 38 36 36 39 40 41 42 42 42 40 40 42 42 41 41 41 40 40 40 39 36 35 37 38 36 34 32 31 31 28 25 23 21 20 20 18 16 14 12 10 8 7 9
9 9 6 6 7 5 6 7 7 9 7 6 9 11 10 7 6 6 5 3 2 4 7 7 4 2 3 7 10 10 13 15 16 17 16 23 33 37 37 37 37 35 35 38 38 35 37 40 41 41 42 42 41 40 41 42 41 41 42 42 42 42 41 39 37 37 39 38 37 34 33 32 29 27 26 23 21 21 18 16 15 14 12 10 9 9
12 18 14 7 6 7 8 9 8 8 6 5 8 8 8 7 5 3 3 2 1 2 7 8 6 4 3 6 11 12 15 18 17 15 16 23 32 36 38 39 38 36 35 37 39 37 36 38 40 41 41 42 42 39 39 41 42 42 43 43 43 43 42 41 39 37 38 39 38 36 35 34 32 29 28 26 25 23 20 18 16 15 14 13 11 10
10 13 9 6 11 11 7 7 7 8 7 5 4 4 4 4 4 3 3 4 1 3 5 7 7 6 5 4 10 15 20 22 19 17 18 20 28 35 38 40 40 38 36 36 38 40 38 37 38 40 42 43 42 40 40 42 43 44 44 44 44 45 44 43 42 39 38 39 39 37 36 35 34 33 31 30 28 26 23 21 19 18 16 15 14 13
7 8 6 7 14 11 5 5 4 5 6 5 5 4 3 2 2 2 1 1 2 4 5 7 7 5 6 4 8 14 16 18 18 20 24 25 30 37 39 40 42 39 37 36 37 40 42 40 38 40 43 44 43 42 42 43 44 44 45 45 45 46 46 45 44 42 40 40 39 38 37 36 36 36 35 33 31 28 26 24 23 22 20 19 17 16
3 6 6 5 7 5 4 4 3 2 4 5 4 3 4 2 3 3 1 2 3 4 6 8 8 4 3 5 6 10 13 20 24 26 32 37 38 41 42 43 43 40 38 38 37 37 41 43 41 40 43 44 44 44 43 44 45 45 45 46 46 47 47 46 46 44 42 41 40 39 38 37 36 37 37 35 33 31 29 27 26 25 23 22 20 18
5 4 3 3 5 4 4 6 5 4 4 3 1 1 2 2 2 3 2 4 4 4 6 9 7 2 3 5 8 7 8 20 32 34 35 39 42 43 43 44 43 40 38 40 41 39 40 44 43 42 43 45 45 45 44 44 45 46 46 47 47 47 47 47 47 46 44 43 42 40 39 38 37 37 37 36 34 32 31 29 27 26 25 23 21 19
6 5 5 10 14 11 6 4 6 6 4 2 3 3 5 4 2 3 3 3 4 3 5 6 5 3 5 6 9 11 10 11 24 33 34 34 37 38 38 42 44 43 42 41 43 43 42 44 45 44 43 45 46 46 45 45 46 46 47 47 48 47 47 48 48 47 46 44 43 42 41 40 39 38 37 36 35 34 32 30 28 27 26 24 22 20
5 6 8 14 16 12 11 13 8 7 4 2 3 6 6 6 4 2 4 6 5 3 3 4 5 4 4 5 8 11 13 9 10 21 30 32 34 35 35 41 44 43 43 43 45 46 44 44 45 45 45 46 47 48 47 46 46 46 46 46 47 47 47 48 48 48 47 46 45 44 42 41 41 40 39 38 37 35 34 32 30 29 27 25 23 22
6 8 9 10 12 15 21 24 15 7 10 3 3 4 4 3 4 1 1 4 3 3 3 5 6 4 5 5 7 9 11 11 10 10 23 30 33 34 35 41 45 44 44 44 45 47 47 45 45 45 46 48 48 49 49 48 46 45 45 46 46 46 47 47 48 49 48 47 46 45 44 43 42 41 40 39 38 36 35 34 32 30 29 27 25 23
5 6 9 6 8 17 21 17 13 5 11 9 5 5 1 0 3 3 2 2 2 3 3 5 7 4 6 5 9 13 11 10 13 9 19 26 27 31 36 41 45 44 43 43 43 45 46 47 47 47 46 47 48 49 49 47 46 45 45 45 45 45 45 46 47 48 48 48 48 47 45 44 42 42 40 39 38 38 37 36 34 33 31 28 26 25
3 2 7 6 9 14 13 5 5 7 3 6 6 6 3 1 3 3 2 2 2 2 2 4 6 4 5 6 11 16 15 13 14 10 16 25 29 35 38 40 42 41 40 42 42 43 46 47 48 48 47 47 47 48 48 46 45 45 45 45 45 44 44 44 46 47 48 49 49 48 47 45 44 43 41 40 39 39 38 37 36 34 32 30 28 26
3 1 5 9 11 10 7 3 5 10 8 7 6 5 4 3 3 3 3 3 3 3 2 2 4 5 5 5 8 13 15 15 14 9 12 24 34 39 38 37 39 40 40 41 41 42 44 46 46 47 47 47 47 47 47 47 45 44 45 45 45 44 44 45 45 46 48 49 49 49 48 47 45 43 42 41 40 40 39 38 37 35 33 32 30 28
4 2 4 8 8 7 9 11 12 12 10 9 7 5 5 4 4 5 4 3 3 4 3 2 4 6 5 2 2 5 11 13 12 7 9 23 35 36 37 39 40 39 39 40 41 42 44 45 45 46 46 46 47 48 48 47 46 45 45 46 46 45 45 46 46 46 47 48 48 49 49 48 46 44 43 42 41 40 39 38 37 36 34 33 32 30
6 2 3 7 7 9 16 19 17 13 11 10 8 6 5 4 5 5 4 3 3 3 5 4 3 7 6 4 9 10 8 14 14 8 9 28 41 38 37 41 42 42 43 43 42 43 43 45 44 45 46 45 45 48 48 48 47 45 45 45 46 46 46 46 46 46 46 47 48 48 48 48 47 46 45 44 43 41 40 39 37 36 36 34 33 32
8 2 2 6 7 9 15 17 14 9 8 7 6 5 5 6 7 6 3 3 3 3 3 4 5 7 8 5 10 13 4 13 17 13 10 22 35 40 41 44 44 43 44 45 44 42 41 43 43 43 44 44 44 45 47 49 49 47 46 45 46 46 46 46 45 46 46 47 47 48 48 48 48 47 46 45 44 42 41 40 38 37 36 35 34 33
6 2 4 5 5 7 9 10 7 7 10 7 7 10 10 10 13 9 3 3 2 5 9 2 5 5 7 7 12 15 11 2 6 13 16 15 24 32 33 36 42 44 46 47 44 41 40 40 42 43 43 43 44 45 48 50 51 50 48 46 45 44 45 45 45 45 46 47 47 47 48 49 48 48 47 46 45 43 41 40 39 38 37 36 35 34
3 2 3 2 3 4 5 5 4 6 8 7 9 14 15 14 16 10 5 4 2 5 9 4 3 5 10 13 14 17 18 14 14 10 4 8 16 28 31 33 36 36 42 48 45 43 44 43 43 44 44 44 44 44 47 49 50 50 49 47 44 43 43 43 44 45 45 46 47 48 49 49 49 49 48 47 45 44 42 41 40 39 38 37 36 35
1 2 3 3 4 6 8 9 10 10 10 10 13 17 15 14 13 8 4 3 4 7 5 3 5 10 14 15 13 15 18 15 17 23 19 15 8 13 25 33 41 39 39 45 46 45 45 45 47 47 46 46 45 45 47 48 49 50 49 47 45 43 43 42 42 43 44 45 47 48 49 50 50 49 48 47 46 44 43 42 40 39 38 37 37 37
1 2 5 7 9 10 11 15 17 15 13 15 17 17 15 14 13 10 6 5 7 7 4 6 11 12 13 15 11 12 15 13 13 18 23 29 29 21 21 17 22 39 41 41 43 45 47 47 48 50 49 47 45 45 45 46 48 49 49 47 45 44 44 43 42 43 43 45 46 48 50 50 50 49 48 47 46 45 44 43 41 40 38 38 38 38
1 3 6 8 12 13 12 15 16 15 13 15 16 16 15 14 12 10 9 8 8 5 5 10 13 11 12 14 9 10 11 11 14 19 24 31 33 31 39 43 27 15 17 15 13 16 31 42 46 48 49 49 48 47 45 44 45 45 45 46 45 45 44 43 43 43 43 45 46 47 49 49 49 49 48 48 47 46 45 43 41 40 38 38 38 39
2 3 7 8 10 13 13 13 14 14 14 15 16 15 14 15 13 11 10 10 11 10 9 11 12 10 10 6 5 9 14 18 21 24 28 32 33 32 34 36 33 32 31 31 34 29 12 13 22 29 34 37 40 42 42 42 43 44 44 45 46 46 45 43 43 43 44 45 46 46 46 48 49 48 48 49 48 47 46 44 42 41 39 38 38 38
3 3 8 8 7 9 12 12 12 13 14 16 17 15 13 14 14 13 11 9 11 11 10 10 10 8 5 3 5 9 18 25 24 25 27 29 30 30 30 31 31 32 32 31 33 34 29 20 8 8 17 21 25 29 29 28 32 38 43 45 46 46 44 44 44 44 45 45 46 45 45 46 47 48 48 49 48 47 46 45 43 41 40 39 37 37
2 2 6 5 5 7 10 12 13 14 15 16 17 15 13 11 11 12 10 7 9 10 10 11 8 5 4 5 8 13 19 20 20 24 26 28 31 30 29 30 30 29 30 29 30 31 29 28 23 11 6 12 18 23 25 23 24 29 34 39 45 46 43 43 44 44 45 45 45 45 45 45 46 47 48 48 48 47 46 45 44 42 41 40 39 37
2 2 3 4 5 6 9 13 13 13 12 10 10 11 11 10 10 12 12 10 11 10 7 7 7 6 7 7 10 13 14 13 18 25 26 27 30 30 29 30 29 28 27 25 26 28 24 23 25 23 15 5 4 13 21 25 26 28 28 28 34 41 42 42 43 44 45 45 46 46 45 45 45 46 48 48 48 47 46 46 45 44 43 42 41 39
1 1 1 3 4 5 10 13 11 9 8 6 8 9 10 10 9 9 10 9 9 9 6 6 9 11 11 8 9 9 9 12 20 28 30 30 30 29 29 30 28 27 26 24 22 22 20 18 20 21 20 14 9 0 12 21 24 28 30 28 28 34 40 41 41 43 45 45 46 46 46 45 45 46 47 48 48 47 47 47 46 45 44 43 43 42
0 0 1 1 2 3 7 9 8 7 6 7 11 12 13 14 11 8 7 8 8 7 7 9 10 9 10 11 11 11 10 16 24 30 32 30 29 29 29 29 29 27 25 25 23 20 17 17 15 15 14 11 11 9 1 13 18 23 30 33 32 34 40 42 40 41 43 46 47 46 47 47 46 46 46 47 48 48 47 47 47 46 45 44 44 44
3 2 2 1 1 1 2 4 6 7 8 11 13 13 12 11 8 7 5 6 12 12 9 9 8 8 12 15 17 16 11 11 19 28 32 29 28 28 27 27 28 27 25 25 24 22 19 16 13 11 8 5 6 7 3 5 11 17 24 30 33 35 39 41 42 41 42 45 48 48 48 48 47 46 46 47 48 49 48 48 48 48 46 45 45 44
4 3 2 2 2 2 2 4 5 7 12 13 11 9 9 6 4 4 3 3 10 12 10 9 9 10 13 15 20 22 15 5 11 21 29 28 25 24 24 25 27 26 25 24 23 22 20 18 15 13 11 9 8 6 5 6 10 14 18 23 30 37 41 41 42 43 44 45 47 49 49 48 48 47 47 47 48 49 49 48 48 48 47 47 46 45
1 2 2 2 2 2 2 4 3 5 8 8 6 8 12 12 9 5 3 1 6 12 14 11 9 10 11 14 20 21 12 3 5 12 22 26 25 25 27 27 27 27 26 26 25 24 23 21 19 18 16 16 14 12 11 11 12 15 18 20 23 30 39 43 43 44 45 46 46 49 49 49 48 47 47 48 49 49 50 49 48 48 48 48 47 46
1 0 2 3 2 2 3 4 3 5 6 4 5 9 15 20 18 10 4 2 3 11 15 12 10 11 12 15 18 16 9 4 3 9 18 22 23 26 29 29 28 27 27 26 26 26 25 23 21 19 17 18 18 15 13 12 12 14 18 22 24 25 31 41 45 45 46 47 45 47 49 48 48 48 48 48 49 50 50 49 48 48 48 48 47 46
1 1 1 3 4 4 5 5 4 5 3 4 8 14 20 22 18 10 4 2 4 11 13 12 11 13 15 16 15 11 7 5 5 11 18 20 22 25 27 28 28 28 27 27 27 26 26 24 22 20 18 19 20 19 18 16 16 17 18 21 27 28 29 36 44 46 46 46 44 45 48 48 48 49 49 49 49 49 49 49 48 48 48 49 48 46
2 1 2 3 4 6 7 6 5 5 2 6 13 22 24 19 10 3 3 2 5 9 11 12 12 14 15 16 14 10 9 10 10 13 18 20 23 26 25 25 25 25 25 25 25 25 25 24 22 21 20 20 21 21 20 19 20 21 21 21 25 32 34 35 41 46 46 45 45 45 46 48 49 48 49 48 47 48 48 48 48 48 48 49 49 47
2 1 1 2 2 3 4 3 5 4 2 10 20 24 19 9 3 3 6 9 10 9 9 11 11 12 13 14 13 13 14 14 13 15 18 20 23 24 24 24 25 25 24 24 23 23 24 25 24 24 22 20 20 20 18 19 21 23 24 24 25 32 36 34 37 45 47 45 46 45 45 47 48 47 48 47 46 47 48 48 48 48 48 48 49 48
1 1 2 1 1 1 2 3 4 4 3 13 17 14 9 4 5 11 15 16 15 13 10 10 10 10 10 11 12 15 16 15 15 16 17 20 23 23 22 23 24 24 25 25 24 23 24 25 26 26 25 22 20 18 17 19 21 23 25 27 27 31 34 31 34 43 47 45 46 46 45 47 47 47 47 47 46 47 47 46 47 47 47 48 48 49
2 2 1 1 0 1 2 2 2 3 6 11 10 4 6 11 15 19 20 18 18 17 15 13 12 11 11 11 11 13 15 17 18 16 16 20 23 22 21 23 23 23 24 23 22 22 23 24 26 27 26 24 21 19 19 20 22 24 27 28 26 28 31 31 32 40 46 46 46 47 46 46 47 46 46 46 45 45 46 46 46 46 47 47 48 48
2 3 1 2 2 2 4 7 7 10 12 13 10 10 13 16 16 17 20 22 20 18 18 18 17 15 14 13 12 12 13 16 19 16 15 19 22 19 19 22 22 22 22 21 20 20 20 22 25 26 27 26 24 21 20 22 24 26 28 29 27 27 30 31 32 39 46 47 46 47 46 45 46 46 45 45 45 45 45 46 46 47 47 47 48 49
3 4 2 2 3 4 8 11 8 9 12 15 16 12 10 12 13 12 16 22 21 18 18 20 20 19 18 17 14 12 12 14 17 16 15 18 20 18 17 20 22 21 21 21 20 20 20 21 23 24 24 25 24 23 22 23 24 26 28 29 28 27 28 30 32 39 47 48 47 47 46 45 45 45 44 44 44 44 45 45 45 47 47 47 48 49
4 5 2 4 4 4 5 4 3 11 16 18 15 10 10 13 15 13 13 19 21 19 19 20 21 22 21 19 16 14 13 12 14 15 15 17 19 19 17 18 21 22 22 23 23 21 21 22 24 23 22 21 22 22 23 24 26 26 26 26 27 27 27 29 33 40 47 48 46 46 46 45 45 44 43 43 43 43 44 44 45 46 47 48 49 49
2 3 3 3 3 5 8 4 11 20 20 11 7 11 15 17 18 17 16 18 19 19 19 20 21 22 22 21 18 17 17 15 13 14 15 15 17 19 19 18 20 21 20 23 24 22 21 23 24 23 21 20 20 19 20 22 25 25 22 21 24 25 27 29 32 40 47 48 47 46 45 45 45 44 43 43 43 43 43 43 44 46 48 49 49 50
1 3 3 2 4 7 8 6 14 17 13 8 11 18 20 19 21 21 19 18 19 20 21 20 19 20 21 21 20 21 21 18 14 15 16 15 15 18 19 19 20 20 20 23 25 23 21 24 26 25 21 19 18 17 17 20 24 24 19 17 19 21 25 29 34 40 46 47 46 45 45 44 44 44 43 42 42 42 42 43 44 45 47 48 49 49
2 3 2 2 5 5 3 7 10 8 7 12 20 23 22 22 23 22 20 20 19 20 21 21 21 21 20 20 20 21 22 19 15 15 17 16 16 18 19 18 20 20 20 23 25 23 22 24 27 25 21 19 17 14 14 16 20 23 20 17 17 19 23 29 35 41 45 46 45 45 44 44 43 42 42 41 41 42 43 44 45 46 46 46 47 48
6 5 4 3 4 5 7 11 11 9 11 17 22 23 22 21 20 19 20 20 20 20 21 21 22 23 22 21 20 19 20 18 14 15 17 17 16 18 19 18 19 20 20 22 24 24 23 25 26 23 21 20 19 16 14 14 15 19 21 19 19 20 22 26 31 36 39 42 43 43 42 42 40 40 40 40 41 43 45 45 45 47 47 47 46 46
Wind_Direction
202 217 215 215 230 220 216 217 234 259 260 267 275 276 279 270 261 229 238 251 186 155 160 160 150 148 155 164 162 162 173 172 164 181 176 167 177 177 173 179 182 185 188 189 185 184 184 183 182 180 182 183 180 184 185 180 183 185 186 188 181 178 178 179 177 174 172 168 167 166 164 159 155 159 165 168 177 181 176 170 167 166 164 159 158 157
199 227 228 215 227 232 234 224 222 240 254 268 276 281 287 278 280 263 248 244 172 145 159 162 151 151 159 165 167 166 169 172 177 184 172 166 177 176 176 183 181 181 186 188 187 186 186 183 182 181 183 183 180 185 187 183 184 185 188 189 185 182 182 183 182 179 178 177 173 171 167 159 156 165 170 173 181 176 168 170 165 168 171 165 160 158
196 228 239 232 232 229 241 243 232 229 235 253 266 277 283 279 288 280 265 245 174 147 159 166 160 152 153 157 164 165 165 183 187 180 174 175 179 180 183 184 181 179 180 186 189 187 187 184 183 184 185 185 183 186 190 186 185 187 189 191 190 187 187 186 185 184 183 181 178 173 166 160 159 165 168 174 187 189 181 179 171 174 180 174 166 162
221 215 220 232 243 234 235 240 245 243 231 235 244 258 269 271 279 281 281 269 211 163 158 161 155 139 141 149 164 170 171 183 184 177 180 183 185 189 190 188 185 180 177 184 189 188 187 184 185 188 186 186 186 187 190 188 187 189 191 193 194 193 192 190 187 187 185 182 182 177 167 166 166 166 165 169 184 196 196 197 195 186 185 181 175 171
242 234 216 214 226 238 243 235 235 245 247 233 228 240 260 268 270 274 290 291 286 191 156 146 128 139 160 162 172 176 175 180 177 173 178 186 192 194 195 194 188 184 181 183 187 188 187 185 186 189 186 186 187 189 190 190 190 189 192 194 195 197 196 193 190 189 187 184 183 177 167 170 174 172 170 167 176 192 197 203 206 193 185 184 182 179
236 250 241 221 212 223 240 244 234 226 243 250 224 219 235 263 271 275 292 305 320 293 155 142 130 197 188 174 173 171 173 180 175 170 174 183 192 192 192 193 190 190 187 185 189 190 188 187 188 188 187 187 189 190 191 193 192 190 193 196 197 199 199 196 194 192 190 187 185 178 169 175 183 181 179 174 177 190 196 199 204 195 185 189 186 182
221 236 244 243 225 213 220 237 245 234 231 251 239 220 216 240 264 272 288 298 304 298 183 162 156 175 193 186 179 173 173 178 178 176 174 179 187 189 189 190 190 194 193 190 192 192 190 189 188 189 189 190 191 192 192 192 192 192 194 197 198 200 201 199 195 195 194 191 189 184 175 178 187 187 186 183 183 191 197 199 200 193 185 189 189 185
242 232 234 249 246 226 217 216 230 240 241 232 246 253 229 222 246 260 272 269 264 299 272 236 200 137 177 201 188 175 171 174 183 189 180 177 183 187 188 189 191 194 194 193 192 191 191 190 189 190 191 192 193 193 192 192 193 195 195 197 200 201 203 202 198 196 198 196 193 189 181 178 186 191 190 188 189 194 200 204 203 197 193 192 193 194
267 236 215 247 254 244 233 217 207 220 240 249 247 265 261 229 232 245 255 252 259 295 291 286 304 141 187 199 187 174 170 177 191 197 189 179 182 186 189 190 191 193 194 194 192 190 192 191 190 191 192 192 193 194 194 193 195 197 198 199 201 202 204 205 202 198 199 201 198 195 189 181 183 191 191 190 194 194 195 204 208 204 206 205 202 204
287 292 306 299 271 252 249 248 225 213 223 240 249 267 278 273 258 250 259 265 254 255 261 277 294 279 225 189 176 170 177 187 193 195 189 182 183 186 189 191 191 193 195 196 194 192 191 192 193 193 193 192 193 196 196 195 196 198 199 201 202 203 205 207 205 201 200 202 202 202 198 188 183 188 190 192 196 193 191 198 207 205 207 213 211 207
290 296 301 296 275 266 252 254 252 241 240 235 241 259 274 291 308 297 296 338 22 247 258 271 273 280 280 192 173 176 189 190 188 188 184 182 185 187 188 190 190 191 195 197 197 195 194 195 195 194 194 192 193 196 197 196 196 198 201 202 203 204 206 207 208 205 202 202 204 205 205 198 190 189 191 193 195 193 190 194 205 209 209 216 219 217
274 284 288 277 281 280 260 256 254 249 261 260 245 246 258 285 309 310 345 19 354 269 280 285 275 268 273 214 179 190 195 187 182 184 181 181 186 188 188 189 190 190 192 195 196 196 195 193 192 193 194 194 193 195 198 198 197 199 201 203 204 204 206 208 209 209 206 204 204 206 208 206 200 197 198 202 201 198 194 194 202 210 213 217 222 227
255 250 256 271 278 277 261 274 273 249 249 248 238 218 198 229 267 274 329 20 242 258 284 295 292 262 250 243 196 198 198 187 186 187 182 181 184 187 188 188 188 190 191 192 192 195 197 195 193 194 194 193 194 196 198 199 198 199 202 203 205 206 207 208 209 211 209 207 206 207 209 210 208 206 207 211 212 208 205 201 202 210 216 218 222 229
279 243 240 258 269 251 220 242 273 278 240 228 222 179 161 175 217 232 197 198 245 267 267 274 287 271 246 275 228 199 190 185 191 192 186 185 184 185 187 186 186 189 192 193 192 192 196 197 196 195 194 194 194 196 199 200 199 200 201 203 206 207 208 208 208 210 211 210 210 209 210 212 212 211 212 216 217 216 215 212 210 215 220 224 228 232
332 293 269 343 325 294 248 225 234 279 268 237 239 173 215 203 203 225 176 168 205 233 229 233 252 213 178 266 266 251 210 184 189 193 189 187 186 185 184 183 184 187 191 195 195 194 194 195 196 194 194 195 195 196 199 200 200 200 202 204 206 207 207 207 208 210 211 212 213 212 213 214 215 215 216 218 220 220 220 219 218 219 222 227 231 235
325 305 335 344 325 314 309 265 244 266 284 238 193 211 244 240 236 253 241 225 213 222 225 214 219 195 185 239 261 267 263 203 188 190 189 190 188 183 181 182 185 188 190 193 194 195 196 196 196 195 195 197 197 197 198 200 201 202 204 206 207 208 208 208 209 210 212 213 214 214 215 216 217 218 218 219 221 223 224 224 224 224 226 228 229 232
345 293 320 341 322 319 345 338 295 237 236 286 212 203 215 228 242 250 265 281 278 263 261 230 225 210 196 237 253 260 266 257 208 184 182 186 184 180 181 183 186 189 190 191 192 193 194 194 196 197 198 198 198 198 199 201 203 203 205 206 207 208 209 210 210 211 213 213 214 215 216 217 218 219 220 221 222 224 226 228 229 229 229 230 228 227
6 292 307 343 319 326 347 341 320 232 199 223 275 230 196 217 260 262 258 279 272 258 253 246 249 206 181 225 238 247 260 260 253 194 171 176 179 181 184 184 186 190 191 191 192 193 194 194 196 197 199 200 200 200 201 202 203 204 206 207 208 208 209 211 212 212 213 213 214 216 217 218 220 220 222 222 223 225 226 228 230 230 230 231 231 226
7 306 305 339 325 332 344 337 329 287 207 212 275 298 307 124 263 254 248 244 244 267 259 264 277 228 188 199 199 216 236 241 249 220 167 171 177 181 186 186 187 189 190 190 191 192 194 195 196 197 199 201 201 201 201 201 203 204 207 209 210 211 212 212 213 213 214 214 215 216 218 219 220 221 222 223 224 225 226 228 230 230 230 231 231 228
14 308 288 329 359 341 331 311 352 360 273 249 295 302 289 258 241 240 249 233 219 257 264 269 284 262 217 199 186 202 214 214 231 221 168 169 177 181 186 187 186 185 186 188 188 190 193 195 197 199 200 200 200 200 200 200 202 204 206 208 210 212 213 213 214 214 215 215 216 217 218 220 221 222 223 224 225 225 226 229 230 231 231 231 230 227
1 39 283 317 351 342 310 290 357 5 344 315 319 312 302 305 291 283 268 244 229 234 256 275 274 273 259 223 187 200 209 211 219 213 173 172 176 181 183 182 182 184 185 186 188 190 193 196 198 200 202 202 201 201 201 200 202 203 206 208 210 211 212 212 214 215 216 216 216 217 218 220 221 222 223 224 224 226 227 227 229 231 231 231 228 225
349 7 312 310 332 328 300 305 322 335 325 314 323 314 306 320 304 284 261 245 242 219 220 269 275 266 265 300 333 239 218 212 212 206 169 170 175 178 181 181 181 182 184 186 189 193 196 198 200 200 202 203 203 203 202 202 202 203 206 209 210 211 212 213 214 215 216 217 217 218 219 220 220 221 222 223 224 225 226 226 227 229 230 230 227 223
348 306 307 304 308 302 295 298 305 310 304 300 303 295 302 342 332 305 291 295 298 243 216 218 266 276 272 311 328 303 228 193 199 207 157 164 173 176 177 181 181 180 183 188 190 193 196 198 199 200 201 203 204 204 204 204 203 203 205 208 210 211 213 214 215 215 216 217 218 218 219 219 220 221 221 222 223 224 225 225 226 227 228 228 227 223
349 306 342 320 307 301 296 294 297 313 328 307 300 330 347 352 344 322 312 351 345 308 262 197 208 271 285 308 329 321 270 176 183 193 161 152 167 176 176 178 180 181 183 188 189 191 194 197 197 198 200 202 203 204 205 205 205 202 202 206 210 212 213 213 214 215 216 218 219 219 218 219 219 220 220 221 222 223 224 224 225 226 226 227 226 223
350 355 18 341 317 318 308 301 309 360 10 336 313 341 345 347 353 346 344 18 16 352 353 339 201 251 307 350 360 354 355 21 167 182 184 161 157 171 178 177 180 184 184 186 187 188 191 195 196 198 200 201 203 205 205 205 205 204 203 206 209 212 213 213 214 216 217 218 219 218 218 219 219 219 220 220 221 222 224 224 224 223 224 224 223 223
349 324 357 333 298 303 296 308 333 355 352 319 312 332 335 345 354 350 343 351 329 347 351 325 255 304 336 357 6 8 10 8 21 49 169 198 163 168 179 184 186 187 185 184 185 186 189 192 193 195 198 200 203 205 205 205 206 205 205 205 208 211 213 214 214 215 216 218 219 218 218 218 218 219 219 220 220 221 222 223 223 223 222 222 221 221
341 299 296 254 252 270 277 291 302 309 312 304 311 323 324 331 340 332 323 340 319 319 313 282 333 339 335 345 359 12 20 20 22 33 32 13 27 155 174 186 194 195 187 184 185 185 187 190 192 194 196 200 203 204 205 205 206 206 206 205 206 210 213 213 214 214 215 217 218 218 218 218 218 219 219 220 220 220 220 221 223 223 222 221 219 219
267 274 278 268 263 265 272 282 289 295 299 299 303 311 314 320 329 325 314 328 327 321 305 314 342 344 319 318 340 13 21 26 23 27 32 24 15 25 53 83 172 190 187 186 188 188 188 189 191 195 197 200 202 204 206 206 206 206 207 205 204 208 211 213 213 213 214 216 217 218 218 218 218 218 219 219 219 220 221 220 221 222 222 221 219 217
261 260 271 274 275 277 277 278 284 290 292 293 294 299 306 309 313 313 310 317 310 288 283 306 321 327 307 307 340 14 18 30 29 24 29 28 21 25 42 51 63 108 128 123 122 161 187 190 191 195 198 201 203 204 205 207 207 207 206 205 205 207 210 211 212 213 213 215 217 217 217 217 217 217 217 218 218 218 220 220 220 221 222 222 220 217
359 283 280 280 283 288 288 282 284 289 290 290 289 290 298 299 300 300 297 300 295 280 280 293 298 297 293 308 357 4 20 30 26 25 31 31 26 30 45 51 49 51 54 54 55 58 84 176 193 197 198 200 201 201 202 204 206 207 206 206 205 207 209 211 212 212 212 214 217 217 216 216 216 216 216 217 217 217 218 219 218 219 220 222 221 217
39 305 298 299 294 295 299 296 293 292 289 288 286 284 286 287 289 289 282 282 286 280 288 303 302 290 293 16 14 5 30 34 27 27 32 30 27 30 41 46 44 45 43 42 48 51 48 38 32 192 194 196 196 197 199 202 206 207 206 206 206 207 208 210 212 212 212 214 216 216 215 216 216 216 215 216 217 217 217 217 217 217 219 221 221 218
79 303 303 309 294 290 299 300 295 292 284 279 279 280 280 279 280 282 281 281 283 291 311 313 300 292 323 13 16 15 27 34 34 35 31 27 26 25 31 37 37 37 38 36 37 42 42 32 28 49 147 191 199 201 202 204 208 209 207 208 208 208 208 209 212 213 213 214 215 215 216 216 216 216 215 216 217 217 217 217 216 216 216 219 221 219
177 244 289 306 296 290 293 293 296 296 283 269 274 279 274 268 263 266 271 272 271 279 300 297 288 319 347 23 41 25 16 24 40 41 32 24 22 21 24 28 28 27 30 30 30 36 40 28 19 28 39 58 179 208 212 209 209 209 211 215 211 207 207 209 212 214 213 213 214 216 217 217 216 216 216 216 217 218 217 216 216 215 215 217 220 221
267 278 304 298 285 288 298 302 304 298 281 275 286 289 285 284 280 276 284 289 277 271 290 331 350 356 359 23 45 34 27 39 43 43 37 27 19 17 17 19 20 18 18 19 19 24 33 30 19 17 18 27 42 53 214 208 209 211 216 223 219 210 209 211 213 214 214 214 215 217 218 218 218 218 217 216 217 218 217 216 215 215 214 215 218 220
185 258 278 289 262 290 313 313 296 272 265 276 285 294 303 309 319 327 324 347 3 352 3 25 26 10 350 355 12 21 41 53 45 38 34 28 21 16 12 10 10 8 5 5 3 2 12 23 23 15 9 14 24 19 219 204 214 219 219 222 222 216 213 213 215 217 216 215 216 217 218 219 219 219 218 217 216 217 218 217 215 215 214 214 217 220
198 193 194 158 186 291 320 285 266 276 292 293 291 296 301 306 335 352 338 26 33 21 23 41 44 22 359 356 359 356 2 55 52 32 24 23 20 17 12 5 0 357 354 353 350 348 350 354 357 357 355 352 355 2 20 202 228 234 229 228 226 221 217 215 216 219 220 218 217 217 218 219 220 219 218 217 216 216 218 218 216 214 213 213 216 220
212 193 194 188 194 196 244 252 267 299 300 290 283 293 304 315 6 1 304 40 35 16 11 27 36 26 9 357 352 342 333 25 55 25 13 13 13 11 8 1 352 347 345 343 341 338 334 330 325 322 319 313 299 289 274 246 241 238 236 236 232 225 221 218 217 220 221 220 219 218 218 219 220 220 218 217 217 217 217 217 216 215 214 213 214 217
228 204 179 185 206 208 240 258 270 284 280 273 274 308 330 337 340 330 283 249 26 12 10 20 31 26 10 357 355 352 348 25 59 14 6 5 1 356 354 353 349 344 341 340 338 334 330 328 325 318 312 309 303 295 285 272 262 253 243 238 236 230 224 219 218 220 222 223 222 219 217 217 220 221 220 218 218 218 217 217 217 215 214 213 214 216
328 327 147 177 226 233 244 256 250 246 255 283 317 329 335 334 330 325 299 244 357 4 10 21 30 25 14 5 5 10 22 43 11 353 0 2 358 353 350 348 347 343 338 337 335 331 328 327 325 321 315 308 302 296 286 273 266 266 257 244 240 240 232 223 220 221 223 224 223 221 218 217 219 222 222 220 219 218 217 217 217 216 214 214 214 215
310 23 146 216 231 228 234 241 245 254 277 353 346 330 327 329 332 325 276 240 345 351 4 21 30 26 16 10 16 29 39 27 343 339 354 1 358 353 351 348 345 341 337 334 331 327 325 321 317 314 309 304 301 297 290 278 266 265 264 252 244 243 242 234 228 224 224 225 224 222 220 218 220 222 222 221 220 219 218 217 217 216 215 214 214 214
287 251 194 217 235 241 242 241 250 259 312 14 344 330 324 321 322 303 258 294 330 338 359 17 29 32 20 9 15 21 7 358 349 345 354 359 356 352 351 349 344 338 334 330 327 325 322 317 313 309 304 301 300 298 296 292 282 269 261 260 251 242 242 244 238 228 224 225 225 223 221 219 219 221 221 221 220 219 218 217 217 216 216 215 214 214
315 327 222 208 235 249 234 243 263 258 26 7 342 336 335 321 260 275 316 318 315 326 357 10 18 30 22 7 3 360 355 356 355 354 357 358 356 352 351 350 345 338 334 331 328 327 323 318 312 307 302 300 298 295 294 297 293 277 263 263 257 242 240 248 244 229 224 225 226 224 222 219 219 219 220 220 220 219 218 218 217 217 216 215 214 214
160 288 296 271 286 265 230 239 251 236 27 6 349 347 3 357 302 311 318 315 313 322 345 357 359 8 12 6 356 353 359 3 356 352 353 353 353 352 351 354 351 341 337 334 330 330 326 320 315 309 304 302 299 293 294 298 295 283 271 267 260 245 243 251 246 231 225 225 226 225 223 220 219 219 219 218 219 219 219 218 217 217 216 215 214 214
171 188 301 322 32 284 254 225 226 275 335 0 360 318 298 312 312 313 315 314 315 323 335 340 340 341 346 350 347 347 356 358 352 350 351 348 348 349 351 357 356 348 342 336 332 331 328 322 318 312 305 305 303 295 295 303 301 289 276 268 260 252 249 251 246 234 226 224 225 225 224 222 220 220 219 218 218 219 219 219 218 217 217 216 215 214
161 152 176 226 221 247 257 264 297 320 331 345 337 295 293 310 312 310 315 317 315 320 328 328 323 322 325 328 331 337 345 350 352 356 357 350 345 346 352 358 358 350 345 342 338 336 331 323 321 317 309 307 307 299 294 301 301 290 277 265 260 257 251 247 244 234 226 224 225 224 223 222 221 219 218 218 217 218 219 219 217 216 216 216 215 215
116 99 100 246 268 283 265 262 289 334 336 328 320 311 319 330 325 319 321 321 317 316 319 319 316 316 317 314 317 325 330 340 348 351 350 347 344 344 350 358 360 353 346 347 349 346 339 331 326 322 315 310 309 302 296 296 293 287 278 266 260 257 249 244 243 234 226 224 224 223 222 221 219 218 218 218 218 218 219 219 217 216 216 215 215 215
77 63 1 270 278 302 272 250 6 351 327 317 317 330 349 346 340 336 325 318 316 314 311 311 309 309 309 309 310 314 314 322 336 341 341 343 344 344 345 354 2 359 350 349 353 352 349 345 339 332 324 318 313 305 299 293 286 281 277 266 257 255 250 246 240 231 225 223 223 222 220 218 217 217 217 217 217 219 220 220 218 217 216 215 215 215
75 15 322 281 282 282 268 296 356 338 320 310 322 336 339 335 333 331 321 313 314 310 306 306 306 303 303 303 304 305 305 309 323 335 337 336 340 344 343 345 356 0 353 349 350 350 352 354 347 340 335 329 320 310 302 294 283 278 274 263 253 252 253 249 240 230 224 222 222 221 219 217 216 217 216 217 217 218 219 220 219 217 217 216 215 215
231 303 314 311 298 277 267 321 350 338 320 310 318 323 327 326 322 321 316 311 310 306 303 304 302 299 298 298 299 301 302 304 313 328 335 333 335 342 342 339 344 353 357 355 350 348 353 357 349 342 339 336 327 315 304 293 281 276 270 257 244 239 238 239 236 230 224 220 219 219 219 217 215 215 216 218 218 219 221 221 220 220 220 219 219 218
185 265 284 307 296 277 292 342 344 327 300 303 308 312 315 316 314 312 310 308 304 301 301 302 300 297 293 291 292 295 297 299 307 321 329 331 334 339 340 338 339 346 356 1 357 352 355 356 350 343 341 342 341 332 317 299 284 275 267 252 236 226 219 218 221 223 222 220 218 218 218 217 215 214 216 218 218 219 221 223 222 222 221 221 221 222
182 207 202 217 259 267 291 312 312 293 282 291 300 307 310 309 305 302 304 304 300 297 297 297 297 296 292 288 287 286 288 292 302 314 319 323 331 338 338 336 339 345 355 5 3 358 355 351 348 346 347 351 356 356 346 329 301 279 267 252 237 228 220 213 211 214 217 217 216 216 215 213 212 213 216 219 220 220 221 222 222 222 222 222 223 222
Height
1478 1484 1486 1486 1485 1482 1480 1480 1480 1480 1480 1479 1477 1478 1478 1479 1475 1464 1456 1446 1443 1461 1472 1471 1479 1485 1486 1486 1483 1487 1492 1494 1501 1504 1502 1503 1505 1507 1509 1511 1513 1515 1519 1521 1524 1527 1529 1531 1534 1537 1539 1541 1543 1546 1548 1551 1553 1555 1556 1558 1560 1562 1564 1566 1567 1569 1571 1573 1575 1576 1578 1580 1581 1583 1585 1585 1586 1586 1587 1588 1589 1589 1591 1591 1592 1593
1478 1485 1485 1480 1478 1477 1476 1475 1476 1479 1479 1478 1479 1480 1478 1477 1473 1461 1453 1445 1439 1457 1471 1468 1476 1483 1482 1482 1481 1484 1489 1491 1495 1499 1499 1501 1503 1505 1506 1509 1511 1513 1517 1520 1522 1524 1527 1529 1532 1535 1537 1538 1541 1543 1546 1549 1552 1554 1555 1557 1559 1561 1563 1564 1566 1568 1570 1572 1573 1575 1577 1579 1581 1583 1584 1585 1585 1586 1587 1588 1589 1589 1590 1591 1592 1592
1482 1484 1480 1475 1472 1473 1473 1472 1474 1476 1477 1479 1479 1480 1481 1475 1470 1461 1449 1442 1440 1454 1469 1468 1475 1481 1476 1476 1477 1478 1483 1487 1490 1493 1496 1499 1500 1502 1504 1506 1508 1510 1514 1517 1519 1522 1524 1527 1530 1533 1535 1536 1539 1541 1544 1547 1550 1552 1554 1555 1558 1559 1561 1563 1565 1567 1569 1571 1573 1575 1577 1579 1581 1582 1584 1585 1585 1586 1587 1588 1589 1590 1590 1591 1592 1592
1485 1481 1474 1470 1469 1471 1473 1472 1472 1475 1475 1477 1478 1481 1482 1473 1472 1470 1455 1444 1442 1449 1462 1467 1475 1480 1478 1478 1478 1477 1479 1482 1487 1490 1493 1496 1497 1498 1501 1503 1505 1507 1510 1513 1516 1519 1521 1524 1527 1530 1532 1534 1537 1539 1542 1545 1548 1550 1552 1554 1556 1558 1560 1562 1564 1567 1569 1571 1573 1575 1577 1579 1581 1582 1584 1585 1585 1586 1587 1588 1589 1590 1590 1591 1591 1592
1479 1472 1465 1466 1468 1470 1473 1472 1472 1476 1477 1475 1474 1477 1478 1471 1469 1468 1458 1450 1447 1448 1452 1464 1484 1488 1481 1483 1482 1478 1479 1480 1482 1487 1490 1493 1495 1497 1499 1501 1503 1505 1507 1509 1512 1515 1518 1520 1524 1526 1529 1532 1534 1536 1539 1542 1545 1547 1549 1552 1554 1556 1559 1561 1563 1566 1568 1570 1572 1574 1577 1579 1581 1582 1583 1585 1585 1585 1587 1588 1588 1589 1590 1590 1591 1592
1473 1466 1462 1465 1467 1467 1471 1472 1470 1473 1478 1476 1470 1468 1470 1468 1465 1462 1460 1458 1462 1465 1454 1460 1494 1502 1482 1479 1481 1476 1478 1480 1479 1482 1486 1489 1492 1494 1497 1498 1501 1503 1506 1507 1509 1512 1515 1517 1521 1524 1526 1529 1531 1533 1536 1539 1542 1545 1547 1550 1552 1554 1557 1559 1562 1564 1567 1569 1571 1572 1574 1576 1578 1580 1582 1583 1583 1584 1585 1587 1588 1589 1589 1590 1590 1591
1465 1461 1460 1463 1465 1466 1469 1471 1467 1467 1476 1478 1468 1460 1462 1463 1463 1463 1463 1467 1474 1475 1459 1454 1482 1500 1488 1480 1476 1473 1475 1477 1476 1478 1481 1484 1488 1490 1492 1494 1497 1500 1503 1505 1507 1509 1512 1514 1517 1520 1523 1526 1529 1531 1534 1538 1541 1544 1546 1548 1550 1552 1555 1558 1560 1562 1565 1567 1569 1571 1572 1574 1575 1577 1579 1581 1583 1583 1584 1586 1587 1588 1589 1589 1590 1591
1461 1461 1461 1461 1463 1464 1468 1469 1465 1463 1473 1475 1461 1455 1460 1461 1462 1461 1462 1470 1471 1466 1462 1455 1462 1486 1495 1483 1470 1469 1475 1478 1477 1476 1476 1478 1482 1485 1488 1490 1492 1495 1498 1500 1503 1506 1508 1511 1513 1516 1519 1523 1526 1529 1532 1535 1538 1541 1544 1546 1548 1550 1553 1555 1558 1560 1563 1565 1567 1569 1571 1573 1574 1576 1578 1580 1582 1583 1584 1585 1586 1587 1588 1589 1589 1590
1458 1460 1462 1461 1463 1464 1464 1462 1458 1459 1468 1466 1455 1454 1456 1457 1460 1458 1460 1467 1466 1466 1472 1463 1457 1479 1492 1477 1467 1470 1477 1482 1479 1475 1474 1473 1476 1480 1483 1486 1488 1491 1494 1497 1499 1502 1505 1507 1510 1513 1516 1520 1524 1527 1529 1532 1535 1539 1542 1545 1546 1548 1551 1553 1556 1558 1560 1563 1565 1567 1570 1572 1573 1575 1577 1579 1580 1582 1583 1584 1585 1586 1587 1588 1589 1589
1458 1457 1458 1461 1463 1462 1458 1454 1451 1456 1461 1457 1453 1454 1453 1454 1456 1456 1461 1465 1466 1475 1480 1467 1461 1477 1484 1472 1470 1476 1479 1479 1474 1469 1468 1468 1471 1474 1477 1481 1484 1488 1491 1494 1497 1499 1502 1504 1507 1511 1514 1518 1522 1524 1527 1530 1533 1536 1539 1543 1544 1546 1548 1550 1553 1556 1558 1560 1563 1566 1568 1570 1572 1573 1575 1578 1579 1580 1582 1583 1583 1584 1586 1587 1588 1588
1458 1454 1455 1458 1459 1455 1452 1451 1448 1450 1453 1452 1454 1457 1458 1458 1457 1458 1461 1462 1474 1484 1478 1465 1460 1471 1481 1473 1466 1468 1465 1462 1462 1464 1465 1465 1468 1470 1472 1476 1480 1484 1488 1491 1494 1497 1499 1502 1505 1509 1512 1516 1519 1522 1525 1527 1530 1533 1535 1539 1542 1543 1546 1548 1550 1553 1555 1558 1560 1563 1565 1568 1570 1571 1573 1575 1577 1578 1580 1581 1582 1583 1584 1585 1586 1587
1460 1458 1456 1454 1453 1450 1450 1452 1449 1447 1448 1452 1457 1462 1467 1468 1466 1469 1468 1469 1489 1495 1475 1461 1457 1467 1481 1472 1458 1453 1445 1444 1451 1455 1458 1461 1463 1465 1468 1472 1476 1480 1484 1488 1491 1494 1497 1500 1502 1506 1509 1512 1516 1519 1521 1524 1526 1529 1532 1535 1538 1541 1543 1545 1547 1550 1553 1555 1558 1560 1563 1565 1568 1569 1570 1572 1574 1576 1578 1579 1580 1581 1582 1584 1585 1586
1463 1459 1455 1453 1451 1449 1453 1458 1456 1452 1451 1457 1461 1466 1478 1484 1484 1489 1488 1484 1493 1490 1470 1461 1461 1467 1471 1460 1450 1448 1443 1442 1445 1445 1447 1452 1456 1460 1463 1467 1472 1476 1481 1484 1487 1490 1493 1497 1499 1502 1505 1508 1512 1516 1518 1520 1522 1525 1528 1531 1534 1537 1540 1542 1545 1547 1550 1552 1555 1557 1560 1563 1565 1567 1568 1570 1572 1574 1576 1578 1579 1580 1581 1582 1583 1584
1470 1460 1453 1456 1455 1449 1454 1462 1465 1462 1457 1460 1463 1468 1481 1491 1499 1505 1499 1494 1496 1486 1468 1461 1465 1470 1465 1449 1439 1440 1439 1439 1441 1441 1443 1443 1447 1452 1456 1461 1467 1472 1477 1480 1483 1486 1489 1492 1496 1499 1501 1505 1508 1512 1514 1517 1519 1521 1524 1527 1530 1533 1536 1539 1541 1544 1547 1549 1552 1555 1557 1560 1562 1564 1566 1567 1569 1572 1574 1576 1577 1578 1579 1580 1581 1582
1488 1479 1463 1461 1461 1453 1453 1457 1460 1460 1458 1458 1456 1462 1474 1480 1491 1499 1494 1494 1496 1485 1472 1466 1469 1471 1465 1448 1430 1425 1428 1431 1435 1438 1440 1442 1444 1448 1453 1458 1464 1468 1473 1477 1479 1482 1485 1488 1492 1495 1498 1501 1504 1508 1511 1513 1516 1518 1520 1523 1526 1529 1533 1536 1538 1541 1544 1546 1549 1552 1555 1557 1559 1561 1563 1565 1567 1569 1571 1573 1575 1576 1577 1578 1579 1581
1492 1486 1466 1461 1460 1455 1455 1453 1450 1456 1462 1458 1452 1463 1472 1468 1472 1480 1479 1477 1479 1482 1477 1469 1466 1457 1448 1439 1424 1418 1422 1423 1428 1432 1436 1442 1445 1448 1453 1455 1458 1463 1466 1471 1474 1477 1481 1484 1488 1491 1494 1497 1501 1504 1507 1510 1511 1513 1516 1519 1522 1526 1529 1532 1535 1537 1540 1543 1546 1549 1551 1554 1556 1559 1561 1562 1564 1566 1568 1571 1572 1574 1575 1576 1578 1579
1498 1487 1466 1463 1461 1453 1457 1455 1450 1456 1462 1460 1459 1465 1463 1455 1459 1472 1476 1467 1469 1486 1481 1464 1459 1451 1444 1441 1429 1422 1423 1420 1423 1427 1430 1438 1442 1447 1450 1450 1454 1458 1461 1464 1468 1471 1476 1480 1484 1487 1491 1493 1497 1500 1503 1505 1507 1509 1513 1516 1519 1523 1526 1529 1532 1534 1536 1539 1542 1545 1548 1551 1553 1555 1557 1559 1562 1563 1565 1568 1569 1571 1573 1574 1576 1577
1503 1493 1470 1467 1468 1457 1455 1456 1448 1446 1451 1460 1466 1460 1452 1453 1456 1466 1479 1478 1479 1491 1480 1459 1459 1457 1455 1453 1437 1428 1429 1423 1420 1422 1426 1432 1438 1443 1445 1446 1450 1453 1457 1461 1463 1467 1471 1475 1479 1483 1487 1490 1492 1495 1499 1502 1505 1507 1510 1513 1516 1519 1522 1526 1529 1531 1534 1536 1539 1542 1544 1547 1550 1552 1554 1556 1559 1561 1563 1564 1566 1568 1570 1571 1573 1575
1501 1500 1478 1467 1472 1465 1457 1460 1457 1447 1443 1451 1458 1452 1455 1471 1473 1469 1480 1487 1489 1494 1481 1462 1457 1453 1453 1450 1438 1433 1433 1427 1420 1420 1424 1429 1433 1439 1441 1443 1446 1449 1454 1458 1461 1465 1468 1471 1475 1478 1482 1486 1489 1492 1496 1499 1503 1505 1507 1509 1512 1515 1518 1522 1526 1529 1532 1534 1536 1538 1540 1543 1546 1548 1551 1553 1556 1558 1559 1561 1562 1564 1566 1568 1570 1572
1498 1507 1493 1470 1471 1473 1465 1465 1470 1466 1456 1451 1454 1454 1457 1469 1473 1470 1471 1475 1483 1491 1485 1473 1463 1453 1443 1435 1431 1429 1425 1422 1420 1417 1420 1424 1427 1432 1436 1439 1443 1448 1452 1455 1458 1462 1464 1467 1471 1474 1478 1482 1485 1489 1493 1497 1500 1502 1504 1506 1508 1512 1515 1518 1522 1525 1528 1530 1532 1535 1537 1540 1543 1545 1548 1550 1552 1554 1556 1558 1559 1561 1563 1565 1567 1569
1496 1506 1503 1481 1475 1481 1478 1471 1474 1480 1477 1470 1468 1469 1466 1464 1463 1466 1466 1463 1470 1482 1484 1482 1476 1456 1431 1419 1421 1423 1417 1413 1413 1412 1415 1419 1421 1427 1433 1437 1442 1446 1449 1452 1455 1458 1461 1464 1468 1471 1475 1478 1483 1487 1490 1493 1496 1499 1502 1503 1505 1508 1510 1514 1517 1520 1523 1526 1529 1532 1534 1536 1539 1542 1544 1547 1549 1551 1552 1555 1556 1558 1560 1562 1564 1565
1504 1508 1511 1500 1492 1491 1484 1472 1472 1480 1481 1478 1478 1477 1475 1471 1470 1476 1476 1463 1459 1469 1473 1478 1480 1456 1425 1413 1415 1416 1413 1408 1406 1408 1411 1415 1420 1426 1431 1435 1439 1443 1447 1450 1453 1456 1459 1462 1465 1468 1472 1476 1479 1483 1486 1489 1492 1495 1498 1500 1502 1504 1505 1509 1512 1516 1519 1522 1525 1528 1530 1533 1536 1538 1541 1543 1545 1547 1549 1551 1553 1555 1557 1559 1560 1562
1509 1509 1512 1510 1501 1494 1483 1471 1472 1478 1476 1475 1475 1473 1471 1472 1475 1483 1485 1472 1463 1463 1458 1464 1475 1453 1419 1412 1413 1408 1405 1403 1403 1405 1407 1411 1417 1423 1428 1433 1435 1439 1443 1446 1449 1453 1456 1458 1462 1465 1468 1472 1475 1478 1482 1485 1488 1490 1493 1496 1499 1499 1501 1504 1508 1512 1515 1519 1521 1524 1527 1530 1532 1535 1537 1539 1541 1543 1545 1548 1550 1552 1553 1555 1557 1559
1509 1510 1516 1516 1503 1491 1481 1470 1469 1473 1476 1478 1476 1473 1473 1475 1477 1478 1480 1477 1474 1472 1463 1466 1475 1453 1419 1412 1414 1407 1401 1399 1401 1403 1405 1411 1416 1419 1424 1428 1431 1435 1438 1442 1446 1449 1453 1456 1459 1462 1464 1467 1470 1473 1477 1480 1484 1487 1490 1492 1495 1496 1498 1501 1505 1509 1512 1514 1518 1521 1524 1526 1529 1531 1533 1535 1537 1539 1542 1544 1546 1549 1550 1552 1554 1556
1517 1516 1521 1526 1520 1508 1494 1481 1478 1481 1486 1489 1485 1479 1477 1476 1476 1475 1474 1476 1479 1480 1477 1475 1471 1450 1425 1417 1417 1413 1408 1404 1402 1402 1403 1411 1417 1422 1425 1427 1429 1431 1433 1437 1442 1445 1449 1453 1456 1459 1461 1463 1466 1469 1472 1475 1479 1483 1485 1488 1491 1493 1496 1499 1501 1505 1507 1511 1514 1517 1520 1522 1525 1527 1529 1531 1534 1536 1539 1541 1543 1545 1547 1549 1551 1553
1522 1521 1523 1531 1535 1531 1518 1505 1502 1502 1500 1496 1489 1484 1481 1480 1482 1482 1483 1488 1489 1485 1484 1481 1470 1452 1436 1428 1424 1422 1418 1414 1411 1407 1406 1411 1416 1422 1426 1428 1430 1431 1432 1434 1438 1441 1445 1448 1452 1455 1457 1459 1462 1465 1468 1472 1475 1479 1482 1485 1487 1490 1492 1495 1498 1501 1504 1507 1510 1512 1515 1518 1520 1523 1525 1528 1531 1533 1536 1538 1540 1542 1544 1546 1548 1550
1521 1522 1523 1527 1530 1529 1523 1513 1508 1506 1505 1500 1493 1489 1487 1484 1484 1485 1489 1495 1493 1488 1484 1478 1471 1464 1453 1442 1436 1432 1428 1426 1422 1418 1416 1417 1417 1420 1423 1423 1425 1429 1432 1433 1435 1438 1441 1444 1448 1450 1453 1456 1459 1461 1465 1468 1471 1475 1478 1481 1484 1486 1488 1491 1494 1497 1500 1503 1505 1508 1510 1513 1515 1518 1521 1524 1527 1530 1532 1534 1536 1538 1540 1542 1545 1546
1522 1524 1523 1522 1521 1518 1516 1511 1504 1503 1504 1499 1494 1492 1490 1487 1485 1487 1492 1491 1489 1493 1491 1475 1469 1472 1464 1452 1446 1440 1435 1432 1429 1427 1426 1424 1423 1422 1419 1417 1420 1426 1431 1434 1436 1437 1438 1441 1444 1446 1449 1453 1456 1459 1462 1465 1468 1471 1474 1478 1482 1483 1485 1487 1490 1493 1496 1499 1501 1503 1506 1508 1511 1514 1518 1521 1524 1526 1529 1531 1533 1535 1537 1539 1541 1543
1522 1524 1520 1518 1517 1512 1509 1507 1503 1501 1500 1496 1493 1493 1491 1489 1489 1490 1491 1487 1484 1491 1490 1476 1471 1474 1465 1454 1451 1445 1437 1435 1435 1434 1432 1428 1428 1427 1421 1420 1426 1431 1435 1438 1440 1439 1440 1442 1444 1445 1448 1450 1453 1456 1459 1463 1466 1469 1473 1476 1479 1481 1482 1484 1487 1490 1493 1495 1497 1499 1502 1505 1509 1511 1515 1518 1520 1523 1525 1527 1530 1532 1534 1536 1538 1540
1522 1523 1518 1517 1516 1512 1508 1505 1501 1500 1499 1495 1492 1492 1492 1490 1489 1488 1487 1485 1481 1481 1478 1472 1470 1469 1460 1453 1454 1448 1438 1435 1436 1436 1433 1430 1432 1433 1431 1431 1435 1438 1440 1442 1442 1442 1446 1450 1450 1450 1451 1452 1454 1457 1459 1463 1466 1468 1471 1473 1476 1479 1480 1482 1484 1486 1489 1491 1493 1496 1500 1503 1506 1508 1511 1514 1516 1519 1521 1524 1526 1528 1530 1532 1534 1537
1524 1524 1518 1517 1519 1516 1510 1505 1502 1501 1500 1496 1491 1490 1491 1490 1489 1486 1484 1482 1480 1477 1472 1470 1471 1467 1456 1451 1452 1448 1439 1436 1438 1440 1437 1435 1436 1437 1437 1438 1440 1441 1442 1445 1445 1446 1449 1454 1455 1454 1455 1456 1458 1460 1462 1465 1467 1469 1471 1473 1475 1476 1478 1480 1482 1484 1486 1488 1491 1494 1497 1500 1503 1505 1508 1510 1513 1515 1518 1521 1523 1525 1527 1529 1531 1533
1525 1526 1521 1520 1524 1521 1512 1508 1506 1501 1498 1496 1492 1488 1489 1490 1489 1486 1481 1479 1478 1476 1475 1475 1474 1468 1457 1451 1452 1449 1442 1440 1443 1445 1445 1442 1441 1442 1442 1442 1444 1445 1446 1448 1449 1448 1450 1455 1457 1456 1457 1459 1460 1461 1463 1465 1467 1470 1473 1474 1474 1476 1478 1480 1481 1482 1484 1486 1489 1492 1494 1496 1499 1502 1504 1507 1509 1512 1515 1518 1520 1522 1524 1525 1527 1530
1522 1525 1524 1525 1528 1524 1515 1510 1507 1504 1505 1502 1492 1486 1485 1486 1485 1482 1477 1475 1474 1474 1476 1477 1473 1465 1457 1453 1453 1454 1451 1448 1448 1452 1452 1450 1448 1447 1447 1446 1448 1449 1449 1451 1452 1452 1454 1458 1459 1458 1458 1459 1460 1461 1462 1464 1467 1471 1475 1476 1476 1477 1479 1479 1479 1481 1482 1484 1487 1489 1490 1493 1495 1498 1500 1503 1505 1509 1512 1514 1516 1518 1520 1522 1524 1526
1521 1523 1525 1527 1529 1527 1519 1512 1511 1516 1518 1506 1488 1481 1480 1479 1480 1480 1477 1474 1472 1470 1472 1474 1471 1467 1464 1460 1458 1458 1457 1454 1453 1456 1457 1456 1455 1453 1450 1450 1450 1451 1451 1452 1453 1455 1459 1463 1463 1459 1457 1458 1460 1461 1462 1464 1467 1472 1477 1479 1479 1479 1478 1478 1478 1479 1480 1482 1484 1486 1488 1490 1492 1494 1496 1499 1502 1505 1508 1510 1513 1515 1517 1519 1521 1523
1521 1524 1526 1527 1529 1529 1524 1522 1527 1527 1515 1497 1484 1480 1480 1477 1476 1478 1477 1475 1475 1474 1474 1476 1476 1473 1471 1467 1462 1459 1458 1455 1454 1456 1459 1461 1461 1458 1455 1453 1453 1453 1453 1453 1453 1455 1458 1462 1462 1460 1458 1458 1459 1461 1463 1464 1467 1472 1476 1478 1479 1478 1477 1477 1477 1477 1478 1479 1480 1482 1484 1486 1488 1491 1493 1496 1499 1501 1503 1506 1509 1511 1514 1516 1518 1519
1519 1523 1525 1527 1530 1530 1529 1531 1532 1521 1502 1490 1486 1483 1480 1479 1479 1480 1481 1480 1479 1479 1479 1479 1477 1473 1472 1470 1464 1461 1460 1458 1456 1457 1461 1464 1464 1463 1461 1458 1456 1456 1455 1455 1455 1455 1456 1457 1458 1458 1459 1459 1459 1461 1463 1465 1469 1472 1474 1475 1475 1475 1475 1474 1474 1474 1474 1475 1476 1478 1480 1482 1485 1487 1490 1492 1495 1497 1499 1501 1504 1507 1511 1513 1515 1516
1515 1519 1522 1526 1527 1527 1529 1529 1525 1517 1507 1498 1491 1485 1482 1482 1482 1484 1487 1485 1482 1481 1480 1479 1477 1474 1473 1471 1467 1463 1460 1459 1460 1461 1463 1465 1466 1466 1465 1463 1460 1458 1456 1456 1456 1455 1455 1456 1456 1457 1459 1460 1460 1462 1463 1466 1468 1469 1470 1471 1471 1471 1471 1471 1470 1470 1470 1471 1472 1473 1475 1478 1481 1483 1486 1489 1490 1492 1494 1497 1500 1503 1507 1509 1511 1513
1514 1516 1519 1524 1523 1522 1526 1527 1525 1526 1518 1502 1491 1486 1484 1483 1481 1481 1485 1486 1484 1483 1482 1479 1478 1477 1474 1472 1470 1464 1459 1461 1466 1468 1467 1467 1467 1466 1465 1464 1462 1460 1457 1456 1455 1454 1454 1454 1455 1455 1456 1457 1459 1460 1461 1463 1464 1464 1464 1465 1466 1467 1467 1466 1466 1466 1466 1466 1468 1470 1472 1474 1477 1480 1482 1484 1485 1487 1490 1493 1496 1499 1502 1505 1507 1509
1514 1514 1516 1522 1523 1522 1526 1528 1526 1523 1512 1497 1491 1489 1485 1484 1480 1479 1484 1488 1487 1485 1484 1482 1480 1479 1476 1475 1472 1467 1466 1470 1474 1472 1470 1470 1468 1465 1464 1463 1462 1460 1458 1456 1455 1454 1453 1453 1453 1454 1454 1454 1455 1457 1458 1459 1460 1460 1460 1460 1461 1463 1463 1462 1462 1461 1462 1463 1465 1467 1469 1471 1474 1476 1478 1479 1481 1483 1486 1488 1492 1495 1498 1501 1504 1506
1515 1518 1520 1522 1523 1522 1524 1525 1520 1511 1501 1497 1496 1493 1488 1484 1481 1485 1492 1492 1486 1485 1485 1483 1481 1479 1477 1477 1475 1473 1474 1478 1477 1473 1471 1470 1468 1466 1464 1462 1461 1460 1458 1456 1455 1454 1453 1453 1453 1453 1453 1453 1453 1454 1455 1456 1456 1457 1457 1457 1458 1458 1458 1458 1458 1458 1460 1461 1463 1465 1466 1468 1470 1472 1474 1476 1478 1481 1483 1485 1488 1491 1494 1497 1500 1503
1517 1519 1522 1523 1522 1520 1520 1520 1515 1505 1500 1500 1499 1494 1489 1486 1486 1492 1495 1488 1483 1485 1484 1483 1482 1481 1479 1478 1477 1477 1478 1478 1477 1474 1472 1470 1468 1466 1465 1464 1463 1461 1459 1458 1456 1454 1453 1452 1452 1452 1452 1453 1452 1452 1453 1453 1453 1453 1453 1454 1454 1453 1453 1454 1455 1457 1458 1459 1460 1462 1462 1464 1466 1468 1470 1473 1476 1479 1481 1483 1485 1487 1490 1493 1496 1499
1522 1521 1520 1520 1521 1520 1518 1518 1515 1507 1502 1501 1499 1493 1491 1492 1493 1494 1489 1484 1483 1484 1481 1481 1482 1481 1480 1479 1478 1479 1479 1477 1476 1474 1471 1470 1469 1468 1466 1465 1463 1461 1459 1458 1456 1454 1452 1451 1450 1450 1450 1450 1451 1451 1451 1451 1450 1449 1449 1450 1449 1449 1450 1451 1453 1454 1454 1455 1456 1458 1459 1460 1462 1464 1467 1470 1473 1476 1477 1479 1482 1484 1486 1489 1492 1495
1526 1525 1521 1519 1519 1520 1519 1520 1518 1511 1504 1502 1501 1497 1496 1498 1498 1493 1488 1486 1485 1482 1480 1481 1480 1480 1480 1479 1478 1478 1477 1475 1476 1474 1471 1470 1470 1469 1467 1466 1464 1462 1459 1456 1454 1453 1451 1450 1448 1447 1446 1447 1448 1448 1448 1448 1447 1446 1445 1445 1444 1445 1446 1447 1449 1450 1450 1451 1453 1454 1456 1457 1459 1461 1464 1466 1469 1472 1474 1476 1479 1481 1483 1485 1488 1490
1524 1525 1525 1522 1521 1522 1520 1514 1510 1507 1503 1503 1504 1502 1500 1499 1497 1493 1490 1488 1485 1483 1482 1480 1479 1479 1479 1478 1478 1479 1477 1475 1475 1474 1472 1471 1471 1469 1468 1466 1465 1463 1460 1457 1455 1452 1451 1449 1447 1445 1444 1444 1444 1445 1445 1446 1444 1443 1441 1440 1439 1440 1442 1443 1444 1445 1446 1447 1448 1450 1452 1454 1455 1457 1460 1462 1465 1468 1471 1473 1476 1478 1480 1482 1484 1487
1521 1521 1523 1523 1520 1519 1516 1508 1503 1503 1503 1503 1503 1501 1499 1497 1495 1493 1492 1490 1487 1485 1482 1480 1479 1479 1479 1478 1479 1479 1477 1476 1474 1473 1473 1472 1471 1470 1467 1465 1463 1463 1461 1459 1456 1454 1452 1450 1447 1445 1443 1442 1442 1442 1442 1442 1442 1439 1437 1436 1435 1436 1437 1438 1440 1440 1441 1442 1443 1445 1448 1450 1452 1454 1456 1459 1462 1464 1467 1470 1472 1474 1476 1478 1481 1483
1518 1518 1520 1520 1517 1514 1510 1505 1503 1504 1503 1502 1501 1500 1498 1496 1494 1492 1491 1490 1488 1486 1483 1481 1479 1478 1478 1478 1478 1478 1478 1477 1475 1474 1473 1472 1471 1470 1468 1465 1463 1462 1461 1459 1457 1454 1452 1449 1447 1444 1441 1440 1440 1440 1439 1439 1438 1436 1434 1433 1432 1432 1433 1434 1435 1435 1436 1437 1439 1441 1444 1447 1449 1451 1454 1457 1459 1461 1464 1466 1468 1470 1473 1475 1477 1479
1518 1519 1519 1518 1517 1515 1509 1504 1503 1503 1502 1500 1499 1498 1497 1496 1495 1493 1492 1491 1489 1486 1483 1481 1479 1476 1475 1476 1476 1476 1477 1476 1476 1475 1473 1471 1470 1468 1466 1465 1464 1463 1461 1459 1456 1454 1452 1449 1446 1444 1441 1439 1438 1437 1436 1435 1435 1434 1432 1430 1429 1429 1429 1430 1430 1431 1432 1433 1435 1437 1440 1443 1446 1449 1452 1454 1456 1458 1461 1463 1465 1467 1469 1471 1473 1475
1518 1519 1518 1516 1515 1513 1508 1503 1502 1502 1500 1498 1497 1497 1496 1495 1494 1492 1491 1489 1488 1485 1483 1481 1478 1476 1473 1472 1472 1473 1473 1474 1475 1474 1473 1471 1469 1467 1465 1464 1464 1464 1463 1460 1456 1453 1451 1448 1446 1443 1440 1438 1436 1435 1434 1433 1432 1431 1429 1427 1426 1425 1426 1426 1426 1427 1428 1429 1431 1434 1436 1439 1443 1446 1449 1452 1454 1456 1458 1460 1462 1464 1464 1466 1468 1470
1517 1518 1517 1516 1514 1510 1505 1503 1503 1501 1497 1496 1496 1496 1495 1495 1493 1491 1490 1488 1487 1485 1482 1480 1478 1476 1473 1472 1470 1469 1468 1469 1470 1470 1470 1470 1469 1467 1466 1464 1463 1463 1463 1461 1457 1453 1449 1447 1446 1443 1441 1438 1436 1434 1432 1430 1429 1428 1427 1425 1423 1422 1422 1423 1423 1424 1425 1427 1428 1431 1433 1437 1440 1443 1446 1449 1452 1454 1456 1458 1460 1461 1462 1463 1465 1467
1515 1516 1515 1515 1515 1510 1505 1505 1505 1503 1499 1496 1494 1494 1494 1493 1492 1490 1489 1487 1485 1483 1481 1479 1477 1475 1473 1472 1470 1468 1466 1466 1465 1466 1466 1466 1466 1466 1466 1465 1463 1462 1460 1459 1457 1454 1449 1446 1445 1443 1441 1438 1436 1434 1431 1428 1427 1426 1424 1423 1421 1420 1420 1420 1420 1421 1423 1424 1426 1428 1431 1434 1437 1441 1444 1447 1450 1453 1454 1455 1457 1458 1460 1462 1463 1465
1511 1512 1512 1513 1513 1509 1505 1505 1505 1504 1500 1496 1494 1494 1492 1491 1490 1489 1487 1485 1483 1481 1479 1478 1476 1474 1473 1471 1471 1469 1467 1465 1465 1465 1464 1464 1464 1464 1463 1463 1462 1460 1458 1457 1455 1453 1450 1447 1445 1443 1441 1438 1435 1433 1430 1428 1426 1424 1423 1421 1419 1418 1418 1418 1418 1419 1420 1422 1424 1425 1428 1431 1436 1440 1443 1445 1447 1449 1450 1451 1453 1455 1457 1459 1461 1463